Location: City of Moscow
(46.7306°N, 116.9989°W)
Time: 18:46:51
(UTC+00:00)

COSMOS 2406 - Pass Details

Date: 11 December 2025
Orbit: 844 x 860 km, 71.0° (Epoch: 15 January)

Event Time Altitude Azimuth Distance (km) Brightness Sun altitude
Exits shadow 13:16:28 39° 262° (W) 1,249 3.6 -20.7°
Maximum altitude 13:17:57 48° 303° (WNW) 1,098 3.4 -20.5°
Drops below altitude 10° 13:23:26 10° 18° (NNE) 2,476 5.7 -19.5°
Sets 13:25:59 0° 24° (NNE) 3,417 6.5 -19.1°
